Terminal Aerodrome Forecast
Issued by NWS Duluth, MN

Home | Current Version | Previous Version | Text Only | Print | Product List | Glossary On
Versions: 1 2 3 4 5 6 7 8 9 10 11 12 13 14 15 16 17 18 19 20 21 22 23 24 25 26 27 28
000
FTUS43 KDLH 221134
TAFDLH
TAF
KDLH 221134Z 2212/2312 24004KT P6SM SKC
     FM221600 26011G20KT P6SM FEW050
     FM230000 28009KT P6SM BKN050
     FM230700 07007KT P6SM VCSH OVC015=

USA.gov is the U.S. government's official web portal to all federal, state and local government web resources and services.